User: anonymous   Login
Location: Tyler Bend Campground
(35.9875°N, 92.7606°W)
Time: 09:09:49
(UTC-05:00)
Language:

CZ-2C R/B - Orbit

View from above orbital plane
View from above orbital plane
View from above satellite
View from above satellite

Ground track
Ground track

The orbit data is extracted from the following two-line orbital elements,

1 36089U 09061B   17293.65979278 -.00000025  00000-0  50064-5 0  9995
2 36089  98.0582 289.9265 0082547  20.1767 111.3384 14.49687205419887
Epoch (UTC): 20 October 2017 15:50:06
Eccentricity: 0.0082547
inclination: 98.0582°
perigee height: 668 km
apogee height: 785 km
right ascension of ascending node: 289.9265°
argument of perigee: 20.1767°
revolutions per day: 14.49687205
mean anomaly at epoch: 111.3384°
orbit number at epoch: 41988

The dashed part of the orbit path shows where the satellite is in the earth's shadow,  

DLR